Location: Unspecified
(0.0000°N, 0.0000°E)
Time: 18:42:13
(UTC+00:00)

COSMOS 2251 DEB - Pass Details

Date: 17 February 2026
Orbit: 744 x 1394 km, 73.9° (Epoch: 2 March)

Event Time Altitude Azimuth Distance (km) Brightness Sun altitude
Exits shadow 03:21:46 46° 88° (E) 1,661 ? -41.9°
Drops below altitude 10° 03:29:11 10° 150° (SSE) 3,422 ? -40.1°
Sets 03:32:17 0° 155° (SSE) 4,433 ? -39.4°
